FW0278 Weather Reports


time (UTC)temp
F
wind
direction
speed
knots
gust
knots
rain 1hr
in
rain 24hr
in
rain mn
in
humidity
%
barometer
mb
20260510103100 65 249 0.0 0.0 0.00 0.64 0.00 98 1015.1
20260510101604 65 249 0.0 0.0 0.00 0.64 0.00 98 1014.9
20260510100130 66 249 0.0 0.0 0.00 0.64 0.00 98 1014.6
20260510094558 66 249 0.0 0.0 0.00 0.66 0.00 99 1014.5
20260510093100 66 249 0.0 0.0 0.00 0.66 0.00 98 1014.5
20260510091556 66 249 0.0 0.9 0.00 0.66 0.00 98 1014.3
20260510090053 66 249 0.0 0.9 0.00 0.66 0.00 99 1014.2
20260510084551 66 249 0.0 0.0 0.00 0.66 0.00 99 1014.3
20260510083055 66 249 0.0 0.0 0.00 0.66 0.00 99 1014.3
20260510081550 66 249 0.0 0.9 0.00 0.66 0.00 99 1014.3
20260510080055 66 249 0.0 0.9 0.00 0.66 0.00 99 1014.1
20260510074546 66 249 0.0 0.9 0.00 0.66 0.00 99 1014.0
20260510073045 66 249 0.0 0.0 0.00 0.66 0.00 99 1013.8
20260510071553 66 249 0.0 0.0 0.00 0.66 0.00 99 1013.7
20260510070044 66 249 0.0 0.0 0.00 0.66 0.00 99 1013.5
20260510064543 66 249 0.0 0.0 0.00 0.66 0.00 99 1013.5
20260510063045 66 249 0.0 0.0 0.00 0.66 0.00 99 1013.6
20260510061548 66 249 0.0 0.9 0.00 0.66 0.00 99 1013.6
20260510060041 66 249 0.0 0.0 0.00 0.66 0.00 99 1013.6
20260510054542 65 249 0.0 0.0 0.00 0.66 0.00 99 1013.5
20260510053038 65 249 0.0 0.0 0.00 0.66 0.00 98 1013.5
20260510051537 65 249 0.0 0.0 0.00 0.66 0.00 98 1013.7
20260510050035 65 249 0.0 0.0 0.00 0.66 0.00 98 1014.0
20260510044536 65 249 0.0 0.0 0.00 0.66 0.66 98 1014.3
20260510043034 65 249 0.0 0.0 0.00 0.66 0.66 98 1014.3
20260510041533 65 249 0.0 0.9 0.00 0.66 0.66 98 1013.7
20260510040035 66 272 0.0 0.0 0.00 0.66 0.66 98 1013.5
20260510034538 66 272 0.0 0.0 0.00 0.66 0.66 98 1013.9
20260510033034 66 272 0.0 0.0 0.00 0.66 0.66 97 1013.9
20260510031543 66 272 0.0 0.0 0.00 0.66 0.66 97 1013.9
20260510030031 66 272 0.0 0.0 0.00 0.66 0.66 97 1014.4
20260510024541 65 272 0.0 0.9 0.00 0.66 0.66 97 1014.0
20260510023028 66 271 0.0 0.0 0.00 0.66 0.66 97 1013.5
20260510021527 66 271 0.0 0.0 0.00 0.66 0.66 97 1013.5
20260510020129 66 272 0.0 0.9 0.00 0.66 0.66 97 1013.4
20260510014526 66 271 0.0 0.0 0.00 0.66 0.66 97 1013.5
20260510013025 66 218 0.0 1.7 0.00 0.66 0.66 97 1013.7
20260510011534 66 253 0.0 0.0 0.00 0.66 0.66 97 1013.5
20260510010025 66 255 0.0 0.0 0.00 0.66 0.66 97 1013.2
20260510004524 66 255 0.0 0.0 0.00 0.66 0.66 96 1012.9
20260510003047 67 255 0.0 0.0 0.00 0.66 0.66 96 1012.7
20260510001528 67 255 0.0 0.0 0.00 0.66 0.66 96 1012.6
20260510000023 67 255 0.0 0.0 0.00 0.66 0.66 96 1012.7
20260509234528 67 255 0.0 0.0 0.00 0.66 0.66 96 1012.4
20260509233023 67 255 0.0 0.0 0.00 0.66 0.66 96 1012.6
20260509231529 67 255 0.0 0.9 0.00 0.66 0.66 96 1012.3
20260509230028 67 260 0.0 0.0 0.00 0.66 0.66 96 1012.3
20260509224518 67 260 0.0 0.9 0.00 0.66 0.66 95 1012.2
20260509223018 67 230 0.0 0.0 0.00 0.66 0.66 94 1010.8
20260509221516 67 230 0.0 2.6 0.00 0.66 0.66 94 1012.0
20260509220016 67 240 0.0 0.0 0.00 0.66 0.66 93 1012.0
20260509214515 68 241 0.0 1.7 0.00 0.66 0.66 93 1012.0
20260509213014 68 239 0.0 0.9 0.00 0.66 0.66 93 1012.0
20260509211514 68 241 0.0 2.6 0.00 0.66 0.66 93 1012.1
20260509210016 68 266 0.0 0.9 0.00 0.66 0.66 93 1012.2
20260509204512 68 245 0.0 1.7 0.00 0.67 0.66 92 1012.0
20260509203017 68 238 0.0 0.0 0.00 0.67 0.66 92 1012.1
20260509201512 69 239 0.0 2.6 0.00 0.67 0.66 91 1012.3
20260509200013 70 237 0.0 3.5 0.00 0.67 0.66 91 1012.8
20260509194513 70 213 0.0 0.9 0.00 0.81 0.66 91 1012.6
20260509193010 70 248 0.0 1.7 0.00 0.81 0.66 90 1012.9
20260509191509 70 222 0.0 2.6 0.00 0.81 0.66 89 1012.7
20260509190014 72 248 0.0 3.5 0.00 0.81 0.66 89 1012.9
20260509184507 73 225 0.9 4.3 0.00 0.93 0.66 86 1012.5
20260509183018 74 236 0.0 2.6 0.00 0.93 0.66 87 1012.4
20260509181504 74 230 0.0 0.9 0.00 0.93 0.66 87 1012.4
20260509180002 74 239 0.0 1.7 0.00 0.93 0.66 89 1012.5
20260509174559 73 256 0.0 1.7 0.00 1.00 0.66 87 1012.4
20260509173104 73 243 0.0 1.7 0.00 1.00 0.66 87 1012.4
20260509171558 73 214 0.0 2.6 0.00 1.00 0.66 91 1012.6
20260509170054 72 250 0.0 0.9 0.00 1.00 0.66 91 1013.0
20260509164558 72 279 0.0 2.6 0.00 1.37 0.66 92 1013.0
20260509163053 71 30 0.9 3.5 0.00 1.37 0.66 90 1013.1
20260509161549 72 240 0.0 1.7 0.00 1.37 0.66 91 1013.4
20260509160047 71 329 0.0 2.6 0.00 1.37 0.66 92 1013.6
20260509154551 71 218 0.0 0.0 0.00 2.60 0.66 96 1013.7
20260509153039 69 130 0.0 1.7 0.00 2.60 0.66 98 1013.4
20260509151539 68 113 0.0 1.7 0.00 2.60 0.66 100 1013.2
20260509150036 67 81 0.0 1.7 0.00 2.60 0.66 100 1013.2
20260509144537 66 312 0.0 0.0 0.00 2.63 0.66 100 1013.4
20260509143033 65 295 0.0 0.0 0.00 2.63 0.66 100 1013.5
20260509141531 65 294 0.0 0.9 0.00 2.63 0.66 100 1013.7
20260509140029 65 234 0.0 0.9 0.00 2.63 0.66 100 1013.3
20260509134527 65 234 0.0 0.9 0.01 2.63 0.66 100 1013.0
20260509133028 64 230 0.0 0.0 0.01 2.63 0.66 100 1012.6
20260509131526 64 319 0.0 0.9 0.02 2.63 0.66 100 1011.2
20260509130026 64 236 0.0 0.0 0.03 2.63 0.66 100 1011.3
20260509124524 64 238 0.0 0.9 0.05 2.62 0.65 100 1011.3
20260509123025 64 239 0.0 0.9 0.07 2.62 0.65 100 1012.2
20260509121527 64 309 0.0 3.5 0.08 2.61 0.64 100 1011.6
20260509120024 64 61 0.9 5.2 0.18 2.60 0.63 100 1012.2
20260509114522 65 75 1.7 7.0 0.30 2.57 0.60 100 1012.8
20260509113022 65 210 0.0 1.7 0.37 2.54 0.57 100 1012.1
20260509111521 65 259 0.0 0.0 0.51 2.52 0.56 100 1011.6
20260509110020 66 247 0.0 1.7 0.41 2.40 0.43 100 1012.2
20260509104532 65 256 0.0 0.0 0.28 2.25 0.28 100 1010.6